Location: ????
(55.2778°N, 39.2433°E)
Time: 13:26:14
(UTC+00:00)

Cosmos 1151 Rocket - Pass Details

Date: 14 April 2024
Orbit: 588 x 611 km, 82.5° (Epoch: 24 May)

Event Time Altitude Azimuth Distance (km) Brightness Sun altitude
Exits shadow 01:04:34 - 198° (SSW) 2,056 5.3 -10.6°
Reaches altitude 10° 01:04:51 10° 199° (SSW) 1,941 5.1 -10.5°
Maximum altitude 01:09:08 71° 283° (WNW) 643 3.0 -10.0°
Drops below altitude 10° 01:13:30 10° 9° (N) 1,971 6.3 -9.5°
Sets 01:15:45 0° 11° (NNE) 2,883 7.2 -9.2°
